Location: *
(44.9308°N, 123.0197°W)
Time: 02:31:11
(UTC+00:00)

Cosmos 389 Rocket - Pass Details

Date: 09 April 2020
Orbit: 443 x 476 km, 81.1° (Epoch: 25 May)

Event Time Altitude Azimuth Distance (km) Brightness Sun altitude
Exits shadow 12:08:37 29° 272° (W) 882 3.4 -15.5°
Maximum altitude 12:09:03 30° 286° (WNW) 861 3.4 -15.4°
Drops below altitude 10° 12:12:13 10° 350° (N) 1,618 5.4 -14.9°
Sets 12:14:29 0° 1° (N) 2,492 6.6 -14.6°
